DELTA 1 DEB, 10707

Orbit data source: Space-Track

DELTA 1 DEB, 10707 is space debris in LEO originally from a launch on Thu, 29 Jul 1976 UTC launched from the Air Force Western Test Range (AFWTR). Debris objects in space refer to the collection of defunct objects orbiting the Earth. Examples of debris include non-operational satellites, rocket bodies, and fragments generated from explosions, collisions, or faulty payload assembly.

Loading next visibility...
Identifier
10707, 1976-077AC
Orbit
LEO
Country
Flag of USUS
Related business
Manufacturer
Unknown
Mission
Spacecraft
Bus & Motor
Unknown
Mass
Unknown
Launch date (UTC)
1976-07-29 (50 years ago)
Launch vehicle
Unknown
Launch site
Air Force Western Test Range (AFWTR)
Object type
Payload
Rocket body
Debris
Shape & HBR
Unknown shape, 0.1 m
Radar Cross Section
Small (<0.1 m²)

Expand to show TLE details & history
Last TLE update: 8 hours ago

TLE from 8 hours ago
0 DELTA 1 DEB
1 10707U 76077AC  26119.58535347  .00000087  00000-0  14481-2 0  9996
2 10707 102.1921 133.4527 0263885  28.0019  90.1731 11.98470190146530
Epoch: 2026-04-29T14:02Z
TLE epoch observation values (Epoch: 2026-04-29T14:02:54.539Z)
Latitude
56.82183°
Longitude
-95.61827°
Altitude
1,703.253 km
Speed
7.027 km/s
True Right ascension
22h 10m 36s
True Declination
56° 40' 57"
Sunlit
Object was in daylight at epoch
Visualization orbit readout
Latitude
Unknown
Longitude
Unknown
Altitude
Unknown
Speed
Unknown
Apparent Right ascension
Unknown
Apparent Declination
Unknown
Sunlit
N/A
Visualization observer readout
Local Sidereal Time
05:44:01
Azimuth
Unknown
Elevation
Unknown
Doppler factor
Unknown
Orbital elements
Apogee altitude
1,898.139 km
Perigee altitude
1,472.572 km
Semi-major axis
8,063.492 km
Eccentricity
0.02639
Inclination
102.1921°
RAAN
133.4527°
Arg. of periapsis
28.0019°
True anomaly
93.19528°
Mean anomaly
90.1731°
Eccentric anomaly
91.6844°
Mean motion
2.99749 °/min
Orbital period
120.1 mins
BSTAR
0.0014481
Loading maneuver chart data...
Computing Atmospheric mass density...
Loading historical data...
Loading historical data...
Loading historical data...
Loading historical data...
Loading historical data...
Loading historical data...
Loading historical data...

Documentation

Showing up to 5 results
|